アトラス彗星

C/2023 E1 ( ATLAS )

English version
Home page
Updated on September 28, 2023

---------------------------------------------------------------------

・ プロフィール

発見日 2023年3月1日
発見光度 18.8等
発見者 Asteroid Terrestrial-Impact Last Alert System (ATLAS) search program

・ 写真集

・ 軌道要素

Epoch 2023 Sept. 13.0 TT = JDT 2460200.5
T 2023 July 1.10943 TT                                  Rudenko
q   1.0266351            (2000.0)            P               Q
n   0.01159028     Peri.  105.89845     +0.06333771     +0.98427281
a  19.3377819      Node   164.57370     -0.97143164     +0.02293576
e   0.9469104      Incl.   38.31368     +0.22871142     -0.17515988
P  85.0
>From 2414 observations 2022 Dec. 25-2023 Aug. 27, mean residual 0".5.

・ 星図

・ 光度変化

        m1 = 10.0 + 5 logΔ + 21.0 log r          [ ,0]  (              〜2023年 7月 1日)
        m1 =  9.8 + 5 logΔ + 20.0 log r(t - 15)  [0, ]  (2023年 7月 1日〜              )

---------------------------------------------------------------------

軌道要素はM.P.E.C. 2023-Q150に掲載されたものです。
星図はステラナビゲータ Ver.11 (アストロアーツ) で作成したものです。
光度グラフはComet for Windowsで作成したものです。

---------------------------------------------------------------------

Copyright(C) Seiichi Yoshida (comet@aerith.net). All rights reserved.